www.pogodaiklimat.ru
ПОГОДА в Ливане
Время
и дата
04:30 15.07
04:55 15.07
05:10 15.07
05:30 15.07
05:55 15.07
06:10 15.07
06:30 15.07
06:55 15.07
07:10 15.07
07:30 15.07
07:55 15.07
08:10 15.07
08:30 15.07
08:55 15.07
09:10 15.07
09:30 15.07
09:55 15.07
10:10 15.07
10:30 15.07
10:55 15.07
11:10 15.07
11:30 15.07
11:55 15.07
12:10 15.07
12:30 15.07
12:55 15.07
13:10 15.07
13:30 15.07
13:55 15.07
14:10 15.07
14:30 15.07
14:55 15.07
15:10 15.07
15:30 15.07
15:55 15.07
16:10 15.07
16:30 15.07
16:55 15.07
17:10 15.07
17:30 15.07
17:55 15.07
18:10 15.07
18:35 15.07
18:50 15.07
19:10 15.07
19:35 15.07
19:50 15.07
20:10 15.07
Ветер
(напр.,м/с)
Видим. Явления Облачность Т
(С)
Тd
(С)
f
(%)
Тe
(С)
Тes
(С)
Комфортность P
(гПа)
Po
(гПа)
Тmin
(С)
Tmax
(С)
R
(мм)
R24
(мм)
S
(см)
штиль 0 16 км ясно +23.0 +21.0 89 +31 +31 очень
душно
996.4
штиль 0 16 км ясно +23.0 +21.0 89 +31 +31 очень
душно
996.7
штиль 0 16 км ясно +23.0 +21.0 89 +31 +31 очень
душно
996.7
штиль 0 16 км ясно +24.0 +21.0 83 +30 +30 очень
душно
997.0
ЮЗ 3 16 км ясно +25.0 +21.0 78 +31 +31 очень
душно
997.4
Ю 3 16 км ясно +25.0 +22.0 83 +32 +33 очень
душно
997.4
Ю 2 16 км ясно +27.0 +22.0 74 +35 +37 очень
душно
997.0
Ю 2 16 км ясно +28.0 +22.0 70 +36 +38 очень
душно
997.4
ЮЗ 3 16 км ясно +28.0 +22.0 70 +36 +40 очень
душно
997.4
ЮЗ 3 16 км ясно +28.0 +22.0 70 +36 +40 очень
душно
997.0
штиль 0 16 км ясно +29.0 +22.0 66 +37 +44 очень
душно
997.0
штиль 0 16 км ясно +29.0 +23.0 70 +39 +51 опасность
солнечного
удара
997.0
нст 2 16 км ясно +30.0 +23.0 66 +40 +49 очень
душно
997.0
нст 3 16 км ясно +31.0 +23.0 62 +41 +48 опасность
перегрева
997.0
ЮЗ 3 16 км ясно +31.0 +23.0 62 +41 +52 опасность
перегрева
996.7
З 4 16 км ясно +31.0 +23.0 62 +41 +50 опасность
перегрева
996.7
ЮЗ 4 16 км 2/2 1080 м +32.0 +23.0 59 +42 +49 опасность
перегрева
996.1
нст 2
{5}
16 км 5/5 1170 м +33.0 +23.0 56 +43 +52 опасность
перегрева
996.1
ЮЗ 4
{6}
16 км 8/8 1260 м +33.0 +23.0 56 +43 +46 очень
душно
996.1
нст 3
{6}
16 км 2/2 1290 м +34.0 +22.0 50 +43 +54 опасность
перегрева
995.7
Ю 3 16 км 2/2 1290 м +34.0 +22.0 50 +43 +56 опасность
перегрева
995.4
З 4 16 км ясно +34.0 +22.0 50 +43 +56 опасность
перегрева
995.1
З 5 16 км 2/2 1650 м +34.0 +21.0 47 +41 +50 опасность
перегрева
995.1
нст 3 16 км 2/2 1650 м +35.0 +21.0 44 +42 +56 опасность
перегрева
994.7
ЮЗ 4 16 км 2/2 1800 м +35.0 +21.0 44 +42 +53 опасность
перегрева
994.4
нст 3
{9}
16 км 2/2 1800 м +36.0 +21.0 42 +43 +57 опасность
перегрева
994.1
штиль 0
{6}
16 км 2/2 1800 м +36.0 +20.0 39 +42 +62 опасность
перегрева
993.7
ЮЗ 5 16 км 2/2 1950 м +36.0 +20.0 39 +42 +50 опасность
перегрева
993.7
З 2
{5}
16 км 5/5 1950 м +36.0 +20.0 39 +42 +51 опасность
перегрева
993.4
З 5 16 км 5/0 2100 m
[Ac]
+36.0 +20.0 39 +42 +47 опасность
перегрева
993.1
нст 2
{6}
16 км 2/0 2100 m
[Ac]
+37.0 +20.0 37 +43 +56 опасность
перегрева
992.7
СЗ 4
{6}
16 км 2/0 2100 m
[Ac]
+36.0 +19.0 37 +41 +50 опасность
перегрева
992.4
З 4
{7}
16 км 5/0 2100 m
[Ac]
+36.0 +20.0 39 +42 +47 опасность
перегрева
992.4
З 5 16 км 2/0 2100 m
[Ac]
+36.0 +20.0 39 +42 +47 опасность
перегрева
992.4
ЮЗ 4 16 км ясно +36.0 +20.0 39 +42 +49 опасность
перегрева
992.1
нст 3
{6}
16 км ясно +36.0 +20.0 39 +42 +47 опасность
перегрева
992.1
З 3
{6}
16 км ясно +36.0 +20.0 39 +42 +47 опасность
перегрева
991.7
З 2 16 км ясно +36.0 +20.0 39 +42 +48 опасность
перегрева
991.7
З 4 16 км 2/0 2100 m
[Ac]
+36.0 +20.0 39 +42 +43 опасность
перегрева
991.7
З 3 16 км 2/0 2100 m
[Ac]
+35.0 +20.0 42 +41 +43 опасность
перегрева
991.7
З 2 16 км ясно +35.0 +20.0 42 +41 +44 опасность
перегрева
991.7
СЗ 3 16 км ясно +34.0 +21.0 47 +41 +42 опасность
перегрева
991.7
СЗ 2 16 км 5/0 2250 m
[Ac]
+34.0 +21.0 47 +41 +42 опасность
перегрева
991.7
штиль 0 16 км 8/0 2100 m
[Ac]
+33.0 +22.0 52 +41 +42 опасность
перегрева
991.7
штиль 0 16 км 8/0 2100 m
[Ac]
+33.0 +22.0 52 +41 +41 опасность
перегрева
992.1
штиль 0 16 км 8/0 2100 m
[Ac]
+32.0 +22.0 56 +41 +41 опасность
перегрева
992.4
штиль 0 16 км 8/0 2100 m
[Ac]
+32.0 +22.0 56 +41 +41 опасность
перегрева
992.4
штиль 0 16 км 8/8 1950 m
[Ac]
+31.0 +22.0 59 +40 +40 очень
душно
993.1
Местоположение метеостанции Lebanon Municipal Airport: широта 36.1904 долгота -86.3157 высота над уровнем моря 168 м.
В архиве по умолчанию представлена погода в Ливане за последние 1-2 суток. Обновление информации о фактической погоде в базе происходит ежечасно! Архивные данные за месяц целиком и за предыдущие месяцы Вы можете получить, выбрав интересующий диапазон дат из раскрывающегося списка и нажав кнопку "Ввод!".
Внимание! Архив погоды МЕТАР в базе сайта по станциям, не включенным в климатический монитор, хранится не более 60 дней. Нет смысла пытаться выбрать более раннюю дату.
*Определитесь, кто Вы:
Внимание! Время в таблицах - местное (без учета летнего времени). Для получения всемирного времени необходимо вычесть поправку, которая равна -6 ч.
Смотрите также архив погоды в соседних городах и на ближайших метеорологических станциях:
Партнеры нашего сайта:      
Пояснения к столбцам:
  • Ветер - указаны скорость ветра в м/с - средняя за 10 мин, порывы в срок и между сроками (в фигурных скобках) и направление, откуда дует ветер: С - северный,
  • СВ - северо-восточный, В - восточный, ЮВ - юго-восточный, Ю - южный, ЮЗ - юго-западный, З - западный, СЗ - северо-западный.
  • Видимость - горизонтальная дальность видимости в метрах или километрах. При видимости от 1 до 10 км при отсутствии осадков обычно наблюдается дымка, при ухудшении видимости до 1 км и менее - туман. В сухую погоду видимость может ухудшаться дымом, пылью или мглою.
  • Явления - указаны атмосферные явления, наблюдавшиеся в срок или в последний час перед сроком; фигурными скобками обозначены явления, наблюдавшиеся между сроками (за 1-3 часа до срока); квадратными скобками обозначены град или гололедные отложения с указанием их диаметра в мм.
  • Облачность - указаны через наклонную черту общая и нижняя облачность в баллах и высота нижней границы облаков в метрах; квадратными скобками обозначены формы облаков: Ci - перистые, Cs - перисто-слоистые, Cc - перисто-кучевые, Ac - высококучевые, As - высокослоистые, Sc - слоисто-кучевые, Ns - слоисто-дождевые, Cu - кучевые, Cb - кучево-дождевые. Подробнее классификацию облаков см. в Атласе облаков (PDF).
  • T - Температура воздуха - температура, измеренная на высоте 2 м над землей.
  • Td - Температура точки росы - температура, при понижении до которой содержащийся в воздухе водяной пар достигнет насыщения.
  • f - Относительная влажность воздуха - влажноcть воздуха, измеренная на высоте 2 м над землей.
  • Te - Эффективная температура - температура, которую ощущает одетый по сезону человек в тени. Характеристика душности погоды. При расчете учитывается влияние влажности воздуха и скорости ветра на теплоощущения человека.
  • Tes - Эффективная температура на солнце - температура, которую ощущает человек, с поправкой на солнечный нагрев. Характеристика знойности погоды. Зависит от высоты солнца над горизонтом, облачности и скорости ветра. Ночью, в пасмурную погоду, а также при ветре 12 м/с и более поправка равна нулю.
  • P - Атмосферное давление - приведенное к уровню моря атмосферное давление.
  • Po - Атмосферное давление - измеренное на уровне метеостанции атмосферное давление.
  • Tmin - Минимальная температура - минимум температуры воздуха на высоте 2 м над землей.
  • Tmax - Максимальная температура - максимум температуры воздуха на высоте 2 м над землей.
  • R - Количество осадков - Количество выпавших осадков за период времени, мм. При наведении курсора мыши на число - период времени, за который выпало указанное количество осадков.
  • R24 - Количество осадков - Количество выпавших осадков за 24 часа, мм.
  • S - Снежный покров - Высота снежного покрова, см. При наведении курсора мыши на число - состояние снежного покрова и степень покрытия местности в баллах.